CAPE
15 379 593 757 781 670 869 1025 1180 1092 1194 1326 1409 1300 1125 986 976 910 952 909 720 709 601 457 323 194 64 17 3 4 4 7 8 9 11 18 24 19 18 12 4 8 15
37 331 635 797 804 794 854 1017 1074 1129 1206 1267 1455 1317 1107 1205 1117 844 875 904 776 628 436 277 177 48 2 3 3 5 9 4 5 9 17 13 18 10 10 14 14 13 19
167 327 508 772 667 603 595 756 776 630 765 761 894 920 854 931 1161 1017 934 825 490 270 143 52 40 17 4 7 8 9 10 7 7 8 2 3 8 12 10 10 10 7 9
266 378 430 671 677 613 428 531 407 436 304 331 478 660 847 944 1079 1007 833 700 605 277 122 53 11 3 6 7 5 9 4 6 3 2 2 10 3 6 8 9 7 11 11
362 459 622 539 590 533 418 446 337 397 244 241 249 559 681 731 799 911 704 617 321 112 39 19 3 4 7 10 9 4 1 0 1 4 7 11 7 3 6 10 8 5 7
459 578 556 506 513 394 376 388 290 228 196 246 228 313 232 201 257 452 534 290 97 36 8 7 9 9 6 8 3 0 0 0 0 2 4 8 9 19 19 13 1 4 10
457 621 533 501 365 247 228 202 206 165 146 124 225 267 218 137 231 401 323 176 98 34 5 7 8 9 9 8 0 0 0 0 0 4 6 9 24 18 16 7 11 6 3
580 612 531 366 275 242 198 257 211 140 116 237 493 702 606 494 357 363 204 142 103 10 7 4 6 8 7 3 0 0 0 0 1 3 3 15 12 9 16 11 6 4 2
573 535 506 328 172 100 67 82 66 175 447 371 443 475 476 345 331 412 264 190 60 6 1 3 5 7 6 0 0 0 0 0 1 11 20 12 18 19 7 4 3 5 5
467 408 441 257 168 202 73 40 41 379 344 345 243 221 236 206 140 189 156 118 66 0 0 1 5 5 1 0 0 0 0 0 5 3 8 16 10 9 6 6 7 8 8
420 448 405 248 154 63 51 9 140 265 226 182 138 91 86 106 71 44 51 102 22 0 0 1 3 0 0 0 0 0 0 3 11 4 10 7 9 10 7 5 7 5 4
441 463 438 298 242 210 215 264 307 262 302 293 167 109 87 50 44 0 0 53 41 0 0 0 0 0 0 0 0 0 1 4 12 17 8 8 11 8 8 6 3 2 1
383 439 410 367 322 337 383 334 290 308 207 209 154 39 11 2 0 0 0 1 30 0 0 0 0 0 0 0 2 2 4 8 8 13 8 9 10 8 4 2 1 1 0
314 400 404 339 386 431 436 437 320 177 115 73 74 13 0 0 0 0 0 0 3 1 0 0 0 0 0 1 1 1 8 9 11 5 3 6 7 6 4 1 1 0 0
257 414 415 363 409 430 418 354 255 120 52 32 30 3 0 0 0 0 0 0 0 0 0 0 0 0 0 0 0 0 1 1 2 0 3 0 1 4 2 1 0 1 0
324 412 383 398 414 396 348 272 137 45 8 0 0 0 0 0 0 0 0 0 0 0 0 0 0 0 0 0 0 0 0 0 0 0 0 0 0 0 0 0 0 0 0
379 332 239 175 158 122 125 116 53 7 0 0 0 0 0 0 0 0 0 0 0 0 0 0 0 0 0 0 0 0 0 0 0 0 0 0 0 0 0 0 0 0 0
352 281 199 87 96 75 51 29 6 0 0 0 0 0 0 0 0 0 0 0 0 0 0 0 0 0 0 0 0 0 0 0 0 0 0 0 0 0 0 0 0 0 0
368 291 213 91 65 52 32 18 6 0 0 0 0 0 0 0 0 0 0 0 0 0 0 0 0 0 0 0 0 0 0 0 0 0 0 0 0 0 0 0 0 0 0
363 324 225 64 34 27 22 19 1 1 1 0 0 0 0 0 0 0 0 0 0 0 0 0 0 0 0 0 0 0 0 0 0 0 0 0 0 0 0 0 0 0 0
321 260 190 54 28 39 21 1 0 0 0 0 0 0 0 0 0 0 0 0 0 0 0 0 0 0 0 0 0 0 0 0 0 0 0 0 0 0 0 0 0 0 0
298 240 159 60 36 22 0 1 1 2 0 0 0 0 0 0 0 0 0 0 0 0 0 0 0 0 0 0 0 0 0 0 0 0 0 0 0 0 0 0 0 0 0
315 252 105 62 54 33 0 0 4 7 4 0 0 0 0 0 0 0 0 0 0 0 0 0 0 0 0 0 0 0 0 0 0 0 0 0 0 0 0 0 0 0 0
377 297 168 99 80 56 20 5 1 0 3 0 6 9 0 0 2 0 0 0 0 0 0 0 0 0 0 0 0 0 0 0 0 0 0 0 0 0 0 0 0 0 0
394 330 202 79 56 56 95 65 53 35 29 18 6 6 10 8 6 5 1 0 0 0 0 0 0 0 0 0 0 0 0 0 0 0 0 0 0 0 0 0 0 0 0
384 355 271 118 19 23 68 136 128 105 45 4 0 2 5 8 5 3 4 2 3 0 0 0 0 0 0 0 0 0 0 0 0 0 0 0 0 0 0 0 0 0 0
CIN
-106 -7 -0 -0 -0 -1 -1 -0 -0 -1 -1 -0 -0 -0 -3 -3 -1 -2 -2 -0 -1 -0 -0 -0 -0 -1 -23 -63 -0 -0 -0 -0 -1 -2 -3 -2 -1 -0 -0 -1 -3 -1 -1
-101 -7 -2 -0 -0 -0 -2 -1 -0 -1 -1 -2 -0 -1 -8 -0 -0 -3 -4 -0 -0 -0 -0 -5 -11 -36 -5 -0 -1 -0 -0 -0 -3 -4 -5 -7 -3 -1 -1 -2 -1 -0 -1
-29 -9 -1 -1 -1 -4 -6 -5 -8 -8 -7 -6 -5 -7 -7 -4 -0 -0 -0 -0 -2 -17 -38 -67 -59 -116 -0 -0 -0 -0 -0 -0 -0 -2 -2 -0 -1 -0 -0 -1 -1 -0 -0
-12 -3 -2 -3 -3 -4 -13 -12 -18 -17 -17 -19 -27 -6 -8 -3 -1 -0 -0 -0 -0 -10 -48 -84 -150 -0 -0 -0 -0 -0 -1 -1 -0 -0 -1 -1 -1 -0 -0 -0 -0 -1 -0
-1 -0 -0 -7 -7 -8 -14 -12 -22 -25 -43 -35 -16 -5 -5 -5 -2 -0 -0 -0 -2 -28 -76 -125 -0 -0 -0 -0 -0 -0 -0 -0 -2 -1 -0 -0 -0 -2 -0 -0 -0 -1 -1
-0 -0 -1 -9 -11 -12 -17 -16 -24 -36 -36 -23 -17 -25 -24 -11 -10 -3 -0 -4 -25 -58 -73 -0 -0 -0 -0 -0 -0 -0 -0 -0 -0 -1 -0 -1 -1 -1 -0 -0 -0 -0 -0
-0 -0 -0 -10 -14 -25 -26 -24 -30 -27 -27 -37 -36 -19 -20 -37 -4 -3 -1 -8 -18 -47 -60 -0 -0 -0 -0 -0 -0 -0 -0 -0 -0 -1 -0 -1 -1 -1 -1 -0 -1 -1 -0
-0 -0 -0 -13 -25 -28 -33 -25 -25 -30 -43 -23 -13 -0 -0 -5 -14 -7 -9 -4 -2 -61 -116 -0 -0 -0 -0 -0 -0 -0 -0 -0 -1 -0 -0 -1 -2 -0 -0 -0 -0 -0 -0
-0 -0 -0 -1 -20 -32 -47 -50 -45 -38 -5 -3 -6 -4 -3 -0 -1 -0 -12 -0 -0 -12 -19 -0 -0 -0 -0 -0 -0 -0 -0 -0 -1 -0 -0 -1 -1 -1 -0 -0 -0 -0 -1
-0 -0 -0 -1 -7 -22 -57 -67 -48 -6 -15 -9 -15 -14 -17 -10 -28 -49 -6 -2 -1 -4 -0 -0 -0 -0 -0 -0 -0 -0 -0 -0 -0 -0 -2 -0 -0 -0 -0 -0 -1 -0 -0
-0 -0 -0 -1 -29 -105 -90 -106 -17 -18 -31 -19 -26 -32 -15 -12 -11 -7 -22 -2 -9 -0 -0 -0 -0 -0 -0 -0 -0 -0 -0 -0 -1 -0 -2 -5 -0 -0 -1 -0 -0 -0 -0
-0 -0 -1 -8 -36 -41 -36 -23 -0 -15 -4 -8 -24 -58 -59 -46 -55 -0 -0 -61 -64 -0 -0 -0 -0 -0 -0 -0 -0 -0 -0 -1 -1 -0 -2 -2 -0 -1 -0 -0 -0 -0 -0
-0 -0 -0 -9 -28 -14 -14 -8 -4 -3 -13 -9 -30 -80 -113 -19 -7 -0 -0 -0 -118 -0 -0 -0 -0 -0 -0 -0 -0 -1 -0 -0 -2 -0 -2 -1 -1 -0 -0 -0 -0 -0 -0
-2 -0 -3 -10 -9 -4 -2 -0 -0 -14 -28 -29 -32 -106 -0 -0 -0 -0 -0 -0 -0 -0 -0 -0 -0 -0 -0 -0 -0 -0 -1 -0 -1 -0 -2 -1 -0 -1 -0 -0 -0 -0 -0
-14 -0 -7 -7 -6 -5 -0 -0 -0 -20 -44 -64 -60 -3 -0 -0 -0 -0 -0 -0 -0 -0 -0 -0 -0 -0 -0 -0 -0 -0 -0 -0 -0 -0 -1 -0 -1 -0 -0 -0 -1 -0 -0
-3 -6 -13 -2 -0 -1 -0 -0 -8 -57 -121 -0 -0 -0 -0 -0 -0 -0 -0 -0 -0 -0 -0 -0 -0 -0 -0 -0 -0 -0 -0 -0 -0 -0 -0 -0 -0 -0 -0 -0 -0 -0 -0
-0 -15 -26 -36 -26 -36 -18 -18 -69 -153 -0 -0 -0 -0 -0 -0 -0 -0 -0 -0 -0 -0 -0 -0 -0 -0 -0 -0 -0 -0 -0 -0 -0 -0 -0 -0 -0 -0 -0 -0 -0 -0 -0
-10 -14 -23 -63 -44 -61 -71 -98 -129 -0 -0 -0 -0 -0 -0 -0 -0 -0 -0 -0 -0 -0 -0 -0 -0 -0 -0 -0 -0 -0 -0 -0 -0 -0 -0 -0 -0 -0 -0 -0 -0 -0 -0
-6 -7 -15 -35 -42 -68 -79 -97 -119 -0 -0 -0 -0 -0 -0 -0 -0 -0 -0 -0 -0 -0 -0 -0 -0 -0 -0 -0 -0 -0 -0 -0 -0 -0 -0 -0 -0 -0 -0 -0 -0 -0 -0
-0 -0 -4 -37 -39 -51 -82 -83 -0 -0 -0 -0 -0 -0 -0 -0 -0 -0 -0 -0 -0 -0 -0 -0 -0 -0 -0 -0 -0 -0 -0 -0 -0 -0 -0 -0 -0 -0 -0 -0 -0 -0 -0
-0 -0 -1 -22 -38 -47 -87 -0 -0 -0 -1 -0 -0 -0 -0 -0 -0 -0 -0 -0 -0 -0 -0 -0 -0 -0 -0 -0 -0 -0 -0 -0 -0 -0 -0 -0 -0 -0 -0 -0 -0 -0 -0
-0 -0 -1 -13 -24 -39 -0 -0 -1 -0 -0 -0 -0 -0 -0 -0 -0 -0 -0 -0 -0 -0 -0 -0 -0 -0 -0 -0 -0 -0 -0 -0 -0 -0 -0 -0 -0 -0 -0 -0 -0 -0 -0
-0 -1 -23 -34 -38 -48 -0 -0 -37 -0 -3 -0 -0 -0 -0 -0 -0 -0 -0 -0 -0 -0 -0 -0 -0 -0 -0 -0 -0 -0 -0 -0 -0 -0 -0 -0 -0 -0 -0 -0 -0 -0 -0
-36 -26 -43 -59 -55 -48 -59 -86 -42 -0 -0 -0 -19 -12 -0 -6 -16 -0 -0 -0 -0 -0 -0 -0 -0 -0 -0 -0 -0 -0 -0 -0 -0 -0 -0 -0 -0 -0 -0 -0 -0 -0 -0
-22 -19 -16 -90 -109 -77 -38 -56 -64 -78 -92 -9 -19 -9 -11 -22 -24 -30 -21 -0 -0 -0 -0 -0 -0 -0 -0 -0 -0 -0 -0 -0 -0 -0 -0 -0 -0 -0 -0 -0 -0 -0 -0
-6 -7 -10 -41 -135 -127 -90 -40 -44 -52 -78 -43 -31 -16 -9 -17 -32 -34 -36 -32 -27 -0 -0 -0 -0 -0 -0 -0 -0 -0 -0 -0 -0 -0 -0 -0 -0 -0 -0 -0 -0 -0 -0
Wind_Speed
2 3 1 3 6 7 8 8 11 11 11 11 12 14 14 14 14 16 17 15 17 19 15 10 13 15 18 19 19 20 20 21 22 22 24 23 24 24 25 25 26 28 28
5 5 1 2 5 6 7 7 9 11 11 12 11 12 14 12 11 13 15 16 16 16 16 14 15 17 18 19 20 22 23 23 23 25 25 24 23 24 25 25 26 27 28
7 6 4 2 4 5 5 7 8 9 10 11 11 11 11 15 11 12 14 14 15 15 18 16 14 15 17 18 20 22 23 24 25 23 23 23 24 24 25 25 27 28 27
8 5 3 3 5 5 5 5 6 6 8 10 10 8 11 16 17 16 15 15 17 18 17 17 15 16 17 17 18 19 20 21 23 23 23 24 23 23 25 25 25 26 27
5 3 1 2 6 7 6 6 7 8 8 9 9 13 12 12 12 12 13 15 15 16 14 13 12 15 16 16 18 18 18 19 20 21 21 21 22 23 23 24 25 26 26
6 2 2 4 7 7 8 7 6 8 9 11 12 15 12 10 9 7 9 12 14 16 17 13 12 14 15 15 17 16 15 17 20 20 20 21 22 23 23 24 24 24 25
5 4 3 4 7 7 8 7 7 8 9 11 12 15 17 8 18 12 19 12 12 13 15 14 14 14 13 14 14 14 13 15 20 21 21 21 21 22 23 23 24 24 25
5 4 5 5 8 9 9 7 7 6 7 8 11 12 16 16 15 15 16 12 12 12 12 13 11 11 12 12 12 14 14 17 19 20 20 20 21 21 22 23 24 24 25
4 5 8 9 9 9 9 8 7 8 10 7 12 12 17 17 20 11 8 10 11 12 11 11 11 10 10 11 11 12 12 15 18 19 19 20 20 21 22 23 23 24 24
4 5 8 10 9 7 6 5 4 4 12 10 12 11 15 15 15 9 9 8 11 10 11 9 9 10 10 11 11 13 16 18 19 19 19 20 20 21 21 22 23 23 23
5 5 7 8 6 3 5 1 2 7 9 11 12 12 13 12 7 5 5 9 10 10 11 10 11 10 8 7 8 8 12 18 18 19 19 20 20 21 21 22 22 21 21
7 6 7 6 2 3 8 9 4 5 1 2 4 6 5 5 3 3 4 3 8 8 10 11 11 12 13 9 12 12 14 15 18 18 18 19 19 20 20 21 21 20 20
8 7 7 4 2 3 3 2 2 10 2 4 5 5 4 5 4 3 3 3 8 12 8 6 4 6 7 8 9 13 15 16 17 17 18 18 19 19 20 20 20 20 20
9 9 8 5 4 4 2 7 9 3 10 12 13 11 9 7 7 6 8 3 5 6 5 5 6 6 10 12 13 14 16 17 18 17 16 17 18 18 19 19 20 20 20
11 11 8 7 6 4 2 1 5 10 12 11 13 13 12 7 8 8 5 8 6 11 9 8 7 8 10 12 12 13 14 14 15 16 16 15 16 18 18 19 19 20 21
13 10 10 9 8 5 4 6 8 10 9 11 12 13 14 13 9 10 7 10 10 14 9 9 7 8 9 11 12 12 12 12 13 13 14 15 16 17 18 19 20 21 22
11 10 11 10 9 7 7 8 9 10 10 11 13 15 15 16 13 12 12 15 16 13 9 8 7 8 9 10 10 11 11 11 12 12 13 14 15 16 18 18 19 20 22
10 10 10 11 10 10 11 10 11 11 13 13 16 16 16 16 16 15 13 13 11 9 8 6 7 8 8 9 9 10 10 10 11 11 12 12 13 14 16 18 19 20 21
12 10 10 12 13 13 12 12 12 14 16 17 18 18 18 17 16 15 13 10 8 9 8 7 8 8 8 9 10 10 10 10 11 11 11 12 13 13 14 16 18 19 21
16 14 14 15 17 16 15 17 16 16 17 19 19 19 19 18 17 16 15 13 11 9 8 7 7 7 7 8 9 9 9 10 10 10 10 11 11 12 13 13 15 17 19
18 14 14 15 20 21 20 20 18 18 18 20 20 20 20 19 20 18 16 12 11 8 7 6 7 6 8 7 8 10 10 10 9 9 10 9 9 10 11 12 13 15 17
21 19 17 18 22 24 22 20 21 21 22 22 22 22 22 20 16 14 13 11 9 8 6 4 5 6 9 4 9 9 10 9 7 8 8 8 9 11 11 11 12 13 16
28 24 19 19 24 24 22 19 20 19 19 20 20 19 18 16 12 11 10 10 8 8 7 5 5 5 8 6 8 13 12 12 12 10 7 9 9 10 10 11 11 13 15
37 32 24 24 25 25 22 21 19 19 19 20 18 16 15 13 13 11 11 11 9 9 8 7 8 8 9 9 9 10 14 16 15 16 13 10 10 10 10 10 11 11 11
32 31 29 27 24 22 23 24 24 23 21 17 14 15 14 14 13 12 11 10 9 8 9 9 8 7 8 9 7 11 9 12 13 11 1 11 8 5 5 6 6 7 7
29 28 26 26 27 22 23 24 26 25 22 19 17 14 16 16 14 12 11 11 9 8 7 6 4 1 3 2 1 5 5 2 4 3 4 5 2 5 3 4 3 4 6
Wind_Direction
318 83 71 47 57 49 48 53 67 68 68 64 60 65 63 62 63 69 67 60 59 59 51 42 40 42 46 47 47 50 51 52 53 53 53 51 51 50 49 47 47 48 46
100 109 117 67 62 58 56 53 63 67 69 67 63 64 68 64 63 64 66 63 58 53 50 46 45 46 47 48 52 57 60 59 56 58 56 52 50 49 49 47 47 47 46
101 114 106 79 65 66 59 62 61 62 64 65 64 64 62 71 66 62 63 60 57 51 53 48 43 42 45 52 57 62 61 61 62 55 52 50 49 49 47 45 47 47 44
99 113 117 89 74 69 65 59 54 53 56 62 59 37 61 72 71 70 68 63 60 56 52 51 43 46 49 53 57 58 58 57 60 57 54 53 48 45 47 44 43 43 42
102 107 115 97 84 79 74 70 66 67 67 61 50 63 56 52 57 65 65 62 56 52 46 43 39 46 51 55 58 58 56 54 52 50 49 43 47 44 42 39 42 41 37
100 117 111 96 90 83 78 74 62 63 64 64 60 66 49 36 39 54 61 57 54 53 53 46 43 48 53 56 58 54 48 45 51 49 45 45 44 44 43 41 37 36 36
109 93 96 93 88 85 80 75 70 68 66 66 61 70 72 50 65 57 73 59 53 48 51 48 50 54 55 55 54 51 37 38 50 50 45 46 43 43 41 39 38 35 34
114 107 98 96 91 88 85 75 68 56 52 52 63 65 67 66 65 68 69 60 54 49 46 46 47 51 54 52 48 48 42 44 48 49 45 43 44 41 40 36 37 36 35
152 118 101 97 92 87 80 72 60 52 58 64 63 57 62 60 72 57 56 56 53 52 47 46 49 52 52 50 43 38 26 35 44 43 42 42 41 40 37 37 36 36 34
164 138 109 102 95 87 72 43 40 59 65 71 65 55 56 51 55 44 50 47 55 50 49 46 52 53 49 46 42 43 44 45 48 46 39 42 40 39 37 38 36 35 33
167 165 126 113 97 42 353 68 72 77 76 75 66 58 49 42 28 3 21 50 52 55 53 52 54 51 45 32 27 9 20 45 43 48 43 41 40 39 38 36 34 31 26
171 164 138 136 100 54 77 93 161 98 48 342 2 13 348 345 326 356 17 28 53 54 55 54 53 54 55 33 40 20 27 33 43 40 41 40 39 38 37 34 30 26 18
190 181 176 180 151 190 130 153 197 219 274 267 272 278 316 10 9 317 0 358 54 64 48 32 318 311 4 4 8 29 37 41 44 39 43 39 39 37 33 29 24 18 10
195 190 196 206 177 187 172 88 86 242 229 228 223 230 242 253 252 250 244 294 263 271 261 291 308 343 21 38 35 39 49 54 55 44 31 32 33 31 27 21 20 14 9
194 195 195 198 193 189 169 162 240 233 230 234 227 229 233 256 246 247 274 257 283 242 257 274 342 9 25 31 28 34 41 39 44 43 35 12 21 25 22 17 16 15 13
200 190 201 208 215 209 221 234 241 239 244 243 241 235 229 233 249 243 262 256 251 239 271 279 340 13 7 32 37 28 32 25 29 24 27 18 12 18 22 17 12 11 11
195 193 207 213 218 223 229 235 242 246 247 247 242 233 231 225 238 240 244 233 235 255 280 300 333 3 10 18 17 18 19 17 16 23 18 27 28 14 17 11 8 5 6
197 191 210 220 221 227 234 237 239 242 243 245 237 237 233 234 235 240 252 256 271 291 311 347 6 350 356 7 16 8 14 12 11 10 15 22 23 20 12 7 4 1 1
207 197 211 220 224 229 232 235 239 241 238 237 234 233 233 239 245 255 263 281 299 303 321 337 341 347 354 351 353 359 358 1 4 9 12 12 11 19 19 14 9 5 3
220 220 221 224 227 230 231 232 239 241 243 238 238 237 239 246 251 254 260 271 284 303 321 337 359 354 5 8 4 2 3 4 6 9 9 10 14 16 15 14 14 10 6
225 221 224 226 227 228 231 234 241 244 244 241 242 241 243 245 246 253 265 285 297 318 335 347 345 354 346 355 2 353 351 349 356 359 1 5 9 9 8 8 7 6 5
227 228 229 231 231 232 237 239 241 240 238 236 239 240 242 249 264 275 285 300 314 322 337 352 354 351 337 3 345 348 345 349 349 350 353 355 354 354 355 357 360 0 359
228 230 232 234 234 237 240 243 246 247 248 248 251 255 260 268 283 291 301 310 321 322 324 326 329 335 331 334 329 329 337 336 346 348 345 345 345 346 348 349 350 350 351
223 229 236 237 238 241 243 246 250 254 257 259 262 267 272 280 286 294 300 305 312 317 319 320 317 316 318 322 320 317 321 327 331 335 342 342 342 340 342 344 344 346 350
232 233 236 240 243 247 246 248 250 254 260 267 270 272 278 284 287 292 297 305 311 312 315 317 315 311 311 317 318 324 322 324 327 336 287 353 355 346 343 343 347 350 351
239 242 243 244 245 250 251 251 252 256 263 265 271 274 278 283 288 289 292 297 304 310 312 316 320 250 179 208 281 178 178 12 172 180 199 210 247 3 357 345 331 337 344